Weather in Sagly

Russia / Tyva Republic     50°29′38″N   91°19′52″E
temp.,
°C
wind,
m/s
gust,
m/s
humid.,
%
clouds,
%
prec.,
mm/h
press.,
hPa
HPBL,
m
1 july, fri
fri101:00+14ssw2250100 0.0 100112
04:00+12wsw3358100 0.0 100123
07:00+16wsw225162 0.0 1000140
10:00+18wnw144288 0.1 9991975
13:00+16nne335278 0.5 1001644
16:00+16nnw225896 1.4 1001563
19:00+14nne456776 2.8 1002612
22:00+10nw4588100 0.6 1003128
2 july, sat
sat201:00+9nw4588100 0.8 1003201
04:00+8nw448552 0.4 1003153
07:00+9nw46767 1.4 1005504
10:00+11nnw465525 0.1 10061397
13:00+14n254251 0.4 10041864
16:00+11n226180 1.9 1006665
19:00+6n338699 9.0 1009316
22:00+5wsw1192100 12.5 1010286
3 july, sun
sun301:00+5nw228797 15.9 1009394
04:00+6nw228786 0.1 1008247
07:00+7nnw237387 0.1 1007709
10:00+8nnw236589 0.1 10071122
13:00+9n226381 0.8 1007992
16:00+11nne336098 1.8 10051025
19:00+9nnw3463100 3.3 1007973
22:00+6nw347963 0.2 1009177
4 july, mon
mon401:00+5wnw4591100 0.6 1010281
04:00+3wnw4487100 0.0 101082
07:00+6nw337063 0.0 1010257
10:00+10n225416 0.0 10091305
13:00+10sse1150100 0.3 10081429
16:00+13e114733 0.6 10071458
19:00+13e114363 0.7 10061661
22:00+8se226314 0.0 100710
5 july, tue
tue501:00+6se116577 0.0 100711
04:00+6sse116340 0.0 100611
07:00+9sse22560 0.0 1006197
10:00+13se34480 0.0 10041067
13:00+16se463998 0.0 10021708
16:00+17ese4438100 0.0 10001205
19:00+14ese3351100 0.0 1000482
22:00+11w1162100 0.1 100019